Flag for Chile Weather past 2 weeks in Antofagasta, Chile

Now
72 °F

Passing clouds.


Feels Like: 76 °F
Forecast: 66 / 76 °F
Wind: 10 mph from Southwest

Location: Antofagasta Airport

Current Time: Mar 30, 2015 at 5:23:12 PM

Latest Report: Mar 30, 2015 at 5:00 PM


Visibility: N/A

Pressure: 29.98 "Hg

Humidity: 61%

Dew point: 57 °F

Location of AntofagastaLocation

Historic Weather in Antofagasta — Graph

°F

Antofagasta temperature yesterday

Maximum temperature yesterday: 72 °F (at 3:00 PM)
Minimum temperature yesterday: 46 °F (at 5:00 AM)
Average temperature yesterday: 67 °F

Past Weeks' High & Low Weather Summary

 TemperatureHumidityPressure
High81 °F (Mar 24, 12:00 PM)94% (Mar 18, 4:00 AM)30.09 "Hg (Mar 18, 4:00 AM)
Low46 °F (Mar 29, 5:00 AM)48% (Mar 21, 12:00 PM)29.74 "Hg (Mar 29, 5:00 AM)
Average70 °F76%29.94 "Hg
* Reported Mar 15 4:00 PM — Mar 30 4:00 PM, Antofagasta, Weather by CustomWeather, © 2015

Note: Actual official high and low records may vary slightly from our data, if they occured in-between our weather recording intervals... More about our weather records

Advertising

Antofagasta weather history for previous 24 hours

 ConditionsComfort  
Time TempWeatherWind HumidityBarometerVisibility
4:00 PM
Mon, Mar 30
72 °FPassing clouds.13 mph65%29.98 "HgN/A
3:00 PM72 °FPassing clouds.14 mph65%30.01 "HgN/A
2:00 PM73 °FPassing clouds.10 mph57%30.01 "HgN/A
1:00 PM73 °FScattered clouds.9 mph57%30.04 "HgN/A
12:00 PM72 °FScattered clouds.5 mph61%30.04 "HgN/A
11:00 AM70 °FPartly sunny.3 mph69%30.04 "HgN/A
10:00 AM68 °FPartly sunny.5 mph78%30.01 "HgN/A
9:00 AM66 °FPartly sunny.3 mph78%30.01 "HgN/A
8:00 AM66 °FScattered clouds.2 mph78%30.01 "HgN/A
7:00 AM66 °FOvercast.No wind73%29.98 "HgN/A
6:00 AM66 °FPassing clouds.3 mph78%29.98 "HgN/A
5:00 AM66 °FPassing clouds.2 mph73%29.98 "HgN/A
4:00 AM64 °FPassing clouds.1 mph78%29.98 "HgN/A
3:00 AM64 °FClear.2 mph78%29.98 "Hg10 mi
2:00 AM64 °FClear.2 mph78%29.98 "Hg10 mi
1:00 AM66 °FClear.3 mph73%29.98 "Hg10 mi
12:00 AM66 °FPassing clouds.5 mph78%29.98 "HgN/A
11:00 PM
Sun, Mar 29
66 °FPassing clouds.5 mph78%29.98 "HgN/A
10:00 PM68 °FPassing clouds.6 mph73%29.98 "HgN/A
9:00 PM68 °FPassing clouds.9 mph69%29.98 "HgN/A
8:00 PM68 °FPassing clouds.13 mph73%29.95 "HgN/A
7:00 PM70 °FPassing clouds.14 mph73%29.92 "HgN/A
6:00 PM70 °FPassing clouds.14 mph73%29.92 "HgN/A
5:00 PM72 °FPassing clouds.13 mph69%29.92 "HgN/A
Weather by CustomWeather, © 2015

See weather overviewHow to use our weather pages